Location: Newark
(58.8333°N, 23.5833°E)
Time: 18:06:23
(UTC+00:00)

METEOR M2 - Visible Passes

Search period start: 08 December 2019 00:00
Search period end: 18 December 2019 00:00
Orbit: 818 x 828 km, 98.5° (Epoch: 08 December)

Date Brightness Start Highest point End Pass type
(mag) Time Alt. Az. Time Alt. Az. Time Alt. Az.
08 Dec ? 05:21:38 10° NE 05:23:48 12° ENE 05:25:57 10° ESE visible
08 Dec ? 15:17:18 15° NE 15:18:08 15° NE 15:21:08 10° N visible
08 Dec ? 16:58:43 36° NNE 16:58:43 36° NNE 17:02:17 10° N visible
08 Dec ? 18:40:09 26° NW 18:40:09 26° NW 18:42:36 10° NNW visible
09 Dec ? 14:57:11 12° NE 14:58:35 13° NNE 15:00:51 10° N visible
09 Dec ? 16:38:36 32° NNE 16:38:36 32° NNE 16:42:16 10° N visible
09 Dec ? 18:20:01 30° NNW 18:20:01 30° NNW 18:22:45 10° NNW visible
09 Dec ? 20:01:26 10° NW 20:01:26 10° NW 20:01:35 10° NW visible
10 Dec ? 14:37:55 10° NE 14:39:04 11° NNE 14:40:13 10° NNE visible
10 Dec ? 16:18:28 27° NE 16:18:28 27° NE 16:22:13 10° N visible
10 Dec ? 17:59:54 34° NNW 17:59:54 34° NNW 18:02:51 10° NNW visible
10 Dec ? 19:41:18 13° NW 19:41:18 13° NW 19:42:18 10° NW visible
11 Dec ? 06:00:46 10° NE 06:04:58 23° E 06:09:09 10° SE visible
11 Dec ? 15:58:20 23° NE 15:58:20 23° NE 16:02:08 10° N visible
11 Dec ? 17:39:46 37° N 17:39:46 37° N 17:42:56 10° NNW visible
11 Dec ? 19:21:11 17° NW 19:21:11 17° NW 19:22:45 10° NW visible
12 Dec ? 05:41:19 10° NE 05:44:46 17° E 05:48:13 10° ESE visible
12 Dec ? 15:38:13 19° NE 15:38:24 19° NE 15:42:01 10° N visible
12 Dec ? 17:19:38 37° N 17:19:38 37° N 17:22:58 10° NNW visible
12 Dec ? 19:01:03 21° NW 19:01:03 21° NW 19:03:03 10° NNW visible
13 Dec ? 05:22:15 10° NE 05:24:30 13° E 05:26:45 10° ESE visible
13 Dec ? 15:18:04 15° NE 15:18:48 15° NE 15:21:50 10° N visible
13 Dec ? 16:59:30 35° NNE 16:59:30 35° NNE 17:02:58 10° N visible
13 Dec ? 18:40:55 25° NW 18:40:55 25° NW 18:43:16 10° NNW visible
14 Dec ? 14:57:56 12° NE 14:59:15 13° NNE 15:01:32 10° N visible
14 Dec ? 16:39:21 32° NNE 16:39:21 32° NNE 16:42:57 10° N visible
14 Dec ? 18:20:46 29° NNW 18:20:46 29° NNW 18:23:26 10° NNW visible
14 Dec ? 20:02:11 10° NW 20:02:11 10° NW 20:02:12 10° NW visible
15 Dec ? 14:38:30 10° NE 14:39:43 11° NNE 14:40:56 10° NNE visible
15 Dec ? 16:19:12 27° NE 16:19:12 27° NE 16:22:55 10° N visible
15 Dec ? 18:00:37 33° NNW 18:00:37 33° NNW 18:03:32 10° NNW visible
15 Dec ? 19:42:02 13° NW 19:42:02 13° NW 19:42:57 10° NW visible
16 Dec ? 06:01:26 10° NE 06:05:40 23° E 06:09:52 10° SE visible
16 Dec ? 15:59:03 23° NE 15:59:03 23° NE 16:02:50 10° N visible
16 Dec ? 17:40:28 36° NNW 17:40:28 36° NNW 17:43:37 10° NNW visible
16 Dec ? 19:21:53 17° NW 19:21:53 17° NW 19:23:25 10° NW visible
17 Dec ? 05:41:57 10° NE 05:45:28 17° E 05:48:58 10° SE visible
17 Dec ? 15:38:53 19° NE 15:39:03 19° NE 15:42:43 10° N visible
17 Dec ? 17:20:19 37° N 17:20:19 37° N 17:23:38 10° NNW visible
17 Dec ? 19:01:44 20° NW 19:01:44 20° NW 19:03:43 10° NNW visible
